Location: Mesa Vista Observatory
(35.5777°N, 105.6987°W)
Time: 07:24:41
(UTC-06:00)

A-11 Canister half - Visible Passes

Search period start: 26 September 2020 00:00
Search period end: 06 October 2020 00:00
Orbit: 1514 x 1686 km, 47.2° (Epoch: 25 September)

Date Brightness Start Highest point End Pass type
(mag) Time Alt. Az. Time Alt. Az. Time Alt. Az.
26 Sep 10.8 02:58:29 16° SE 02:58:47 16° SE 03:03:56 10° E visible
26 Sep 9.2 04:56:44 27° SSW 05:02:28 65° SE 05:11:39 10° ENE visible
27 Sep 10.9 02:37:19 14° ESE 02:37:19 14° ESE 02:40:29 10° E visible
27 Sep 9.2 04:35:33 37° SSW 04:39:35 61° SE 04:48:43 10° ENE visible
28 Sep 11.1 02:16:05 11° ESE 02:16:05 11° ESE 02:16:53 10° E visible
28 Sep 9.3 04:14:18 47° S 04:16:42 58° SE 04:25:47 10° ENE visible
28 Sep 9.2 06:12:32 11° WSW 06:21:42 58° NNW 06:30:50 10° NE visible
29 Sep 9.3 03:53:00 53° SSE 03:53:49 54° SE 04:02:50 10° ENE visible
29 Sep 9.2 05:51:14 18° W 05:58:44 60° NNW 06:07:54 10° NE visible
30 Sep 9.4 03:31:38 50° ESE 03:31:38 50° ESE 03:39:53 10° ENE visible
30 Sep 9.1 05:29:51 26° W 05:35:46 63° NNW 05:45:00 10° NE visible
01 Oct 9.8 03:10:12 42° E 03:10:12 42° E 03:16:55 10° ENE visible
01 Oct 9.0 05:08:26 36° W 05:12:48 65° NNW 05:22:05 10° NE visible
02 Oct 10.1 02:48:45 33° E 02:48:45 33° E 02:53:57 10° ENE visible
02 Oct 9.0 04:46:57 48° W 04:49:51 68° NNW 04:59:10 10° NE visible
03 Oct 10.5 02:27:13 25° E 02:27:13 25° E 02:30:58 10° ENE visible
03 Oct 8.9 04:25:26 63° WNW 04:26:54 71° NNW 04:36:16 10° NE visible
03 Oct 9.7 06:24:15 10° WNW 06:33:06 41° N 06:41:45 10° ENE visible
04 Oct 10.8 02:05:42 18° ENE 02:05:42 18° ENE 02:07:58 10° ENE visible
04 Oct 8.9 04:03:54 75° NW 04:03:57 75° NNW 04:13:22 10° NE visible
04 Oct 9.7 06:02:05 13° WNW 06:10:05 42° N 06:18:46 10° ENE visible
05 Oct 11.1 01:44:07 13° ENE 01:44:07 13° ENE 01:44:58 10° ENE visible
05 Oct 9.1 03:42:19 68° NNE 03:42:19 68° NNE 03:50:28 10° NE visible
05 Oct 9.6 05:40:31 19° WNW 05:47:04 43° N 05:55:48 10° ENE visible
